,,,PA_Meas_PMT16A,,PR_Meas_QMR101_102,,RH_Meas_QMH101,,SR_Meas_QMS101,,TA_Meas_QMH101,,GenWind,,GenWind,
date,time,status,PA,status,PR,status,RH,status,SR,status,TA,status,DirAvg,status,SpdAvg,
2008-03-30, 00:00:04,VALID,1009.9,VALID,0,VALID,94.3916,VALID,0,VALID,25.7036,VALID,187,VALID,0.8375,
2008-03-30, 00:01:04,VALID,1009.9,VALID,0,VALID,94.2696,VALID,0,VALID,25.6626,VALID,192,VALID,1,
2008-03-30, 00:02:04,VALID,1009.91,VALID,0,VALID,94.3229,VALID,0,VALID,25.6821,VALID,193,VALID,1.32109,
2008-03-30, 00:03:04,VALID,1009.92,VALID,0,VALID,94.1399,VALID,0,VALID,25.7016,VALID,201,VALID,0.834375,
2008-03-30, 00:04:04,VALID,1009.89,VALID,0,VALID,94.0027,VALID,0,VALID,25.7406,VALID,203,VALID,0.727734,
2008-03-30, 00:05:04,VALID,1009.88,VALID,0,VALID,93.7815,VALID,0,VALID,25.7601,VALID,195,VALID,0.674219,
2008-03-30, 00:06:04,VALID,1009.86,VALID,0,VALID,93.6595,VALID,0,VALID,25.7796,VALID,210,VALID,0.469141,
2008-03-30, 00:07:04,VALID,1009.83,VALID,0,VALID,93.4079,VALID,0,VALID,25.8206,VALID,250,VALID,0.382422,
2008-03-30, 00:08:04,VALID,1009.83,VALID,0,VALID,93.385,VALID,0,VALID,25.8381,VALID,287,VALID,0.282422,
2008-03-30, 00:09:04,VALID,1009.81,VALID,0,VALID,93.2172,VALID,0,VALID,25.8771,VALID,267,VALID,0.138281,
2008-03-30, 00:10:04,VALID,1009.77,VALID,0,VALID,93.0799,VALID,0,VALID,25.8966,VALID,267,VALID,0.140234,
2008-03-30, 00:11:04,VALID,1009.78,VALID,0,VALID,92.7978,VALID,0,VALID,25.8966,VALID,261,VALID,0.439063,
2008-03-30, 00:12:04,VALID,1009.76,VALID,0,VALID,92.5309,VALID,0,VALID,25.9161,VALID,262,VALID,0.0664063,
2008-03-30, 00:13:04,VALID,1009.79,VALID,0,VALID,92.4546,VALID,0,VALID,25.9161,VALID,176,VALID,0.439844,
2008-03-30, 00:14:04,VALID,1009.77,VALID,0,VALID,92.4623,VALID,0,VALID,25.9356,VALID,176,VALID,0.782422,
2008-03-30, 00:15:04,VALID,1009.77,VALID,0,VALID,92.325,VALID,0,VALID,25.9356,VALID,164,VALID,0.705469,
2008-03-30, 00:16:04,VALID,1009.75,VALID,0,VALID,92.3402,VALID,0,VALID,25.8771,VALID,181,VALID,0.616016,
2008-03-30, 00:17:04,VALID,1009.73,VALID,0,VALID,92.4775,VALID,0.105969,VALID,25.8556,VALID,176,VALID,0.502344,
2008-03-30, 00:18:04,VALID,1009.72,VALID,0,VALID,92.5385,VALID,0,VALID,25.8381,VALID,176,VALID,0.452344,
2008-03-30, 00:19:04,VALID,1009.7,VALID,0,VALID,92.7215,VALID,0.105969,VALID,25.8576,VALID,176,VALID,0.53125,
2008-03-30, 00:20:04,VALID,1009.69,VALID,0,VALID,92.7139,VALID,0,VALID,25.8381,VALID,175,VALID,0.528125,
2008-03-30, 00:21:04,VALID,1009.69,VALID,0,VALID,92.7978,VALID,0,VALID,25.8381,VALID,163,VALID,0.688672,
2008-03-30, 00:22:04,VALID,1009.67,VALID,0,VALID,92.7825,VALID,0,VALID,25.8381,VALID,163,VALID,0.724609,
2008-03-30, 00:23:04,VALID,1009.64,VALID,0,VALID,92.7368,VALID,0,VALID,25.8381,VALID,171,VALID,0.721875,
2008-03-30, 00:24:04,VALID,1009.64,VALID,0,VALID,92.6834,VALID,0,VALID,25.8186,VALID,159,VALID,0.729297,
2008-03-30, 00:25:04,VALID,1009.61,VALID,0,VALID,92.6758,VALID,0.105969,VALID,25.7991,VALID,159,VALID,0.817969,
2008-03-30, 00:26:04,VALID,1009.56,VALID,0,VALID,92.3708,VALID,0,VALID,25.7776,VALID,163,VALID,0.553906,
2008-03-30, 00:27:04,VALID,1009.56,VALID,0,VALID,92.1267,VALID,0,VALID,25.7991,VALID,144,VALID,0.7,
2008-03-30, 00:28:04,VALID,1009.53,VALID,0,VALID,91.6616,VALID,0,VALID,25.7991,VALID,148,VALID,0.590625,
2008-03-30, 00:29:04,VALID,1009.5,VALID,0,VALID,91.8141,VALID,0,VALID,25.8186,VALID,151,VALID,0.276563,
2008-03-30, 00:30:04,VALID,1009.48,VALID,0,VALID,91.7912,VALID,0,VALID,25.7991,VALID,151,VALID,0.223047,
2008-03-30, 00:31:04,VALID,1009.44,VALID,0,VALID,91.5243,VALID,0,VALID,25.7991,VALID,150,VALID,0.213672,
2008-03-30, 00:32:04,VALID,1009.42,VALID,0,VALID,91.6997,VALID,0,VALID,25.8186,VALID,150,VALID,0.119141,
2008-03-30, 00:33:04,VALID,1009.42,VALID,0,VALID,91.6463,VALID,0,VALID,25.8206,VALID,151,VALID,0.028125,
2008-03-30, 00:34:04,VALID,1009.35,VALID,0,VALID,91.7302,VALID,0,VALID,25.8206,VALID,150,VALID,0.130469,
2008-03-30, 00:35:04,VALID,1009.33,VALID,0,VALID,91.6234,VALID,0,VALID,25.7991,VALID,150,VALID,0.05625,
2008-03-30, 00:36:04,VALID,1009.31,VALID,0,VALID,92.2411,VALID,0,VALID,25.7991,VALID,150,VALID,0.0230469,
2008-03-30, 00:37:04,VALID,1009.27,VALID,0,VALID,92.7368,VALID,0,VALID,25.8186,VALID,151,VALID,0.117969,
2008-03-30, 00:38:04,VALID,1009.23,VALID,0,VALID,92.6453,VALID,0,VALID,25.7796,VALID,150,VALID,0.124219,
2008-03-30, 00:39:04,VALID,1009.23,VALID,0,VALID,92.6682,VALID,0,VALID,25.7601,VALID,150,VALID,0.0542969,
2008-03-30, 00:40:04,VALID,1009.24,VALID,0,VALID,92.7825,VALID,0,VALID,25.7211,VALID,150,VALID,0.0128906,
2008-03-30, 00:41:04,VALID,1009.25,VALID,0,VALID,93.0266,VALID,0,VALID,25.7211,VALID,151,VALID,0.324609,
2008-03-30, 00:42:04,VALID,1009.26,VALID,0,VALID,92.8741,VALID,0,VALID,25.6821,VALID,194,VALID,0.658984,
2008-03-30, 00:43:04,VALID,1009.26,VALID,0,VALID,92.5843,VALID,0,VALID,25.6821,VALID,196,VALID,0.644531,
2008-03-30, 00:44:04,VALID,1009.24,VALID,0,VALID,92.5385,VALID,0,VALID,25.6821,VALID,196,VALID,0.678906,
2008-03-30, 00:45:04,VALID,1009.25,VALID,0,VALID,92.7825,VALID,0,VALID,25.6821,VALID,178,VALID,0.585547,
2008-03-30, 00:46:04,VALID,1009.27,VALID,0,VALID,92.7978,VALID,0,VALID,25.6626,VALID,177,VALID,0.492969,
2008-03-30, 00:47:04,VALID,1009.22,VALID,0,VALID,92.6529,VALID,0,VALID,25.6431,VALID,159,VALID,0.699609,
2008-03-30, 00:48:04,VALID,1009.2,VALID,0,VALID,92.508,VALID,0,VALID,25.6431,VALID,155,VALID,0.735937,
2008-03-30, 00:49:04,VALID,1009.2,VALID,0,VALID,92.386,VALID,0,VALID,25.6431,VALID,173,VALID,0.806641,
2008-03-30, 00:50:04,VALID,1009.15,VALID,0,VALID,92.2792,VALID,0,VALID,25.6431,VALID,165,VALID,0.927734,
2008-03-30, 00:51:04,VALID,1009.18,VALID,0,VALID,92.2411,VALID,0,VALID,25.6626,VALID,171,VALID,0.8,
2008-03-30, 00:52:04,VALID,1009.16,VALID,0,VALID,92.3479,VALID,0,VALID,25.6626,VALID,169,VALID,0.881641,
2008-03-30, 00:53:04,VALID,1009.16,VALID,0,VALID,92.325,VALID,0,VALID,25.6431,VALID,165,VALID,1.00508,
2008-03-30, 00:54:04,VALID,1009.16,VALID,0,VALID,92.3555,VALID,0,VALID,25.6646,VALID,181,VALID,0.688672,
2008-03-30, 00:55:04,VALID,1009.12,VALID,0,VALID,91.7378,VALID,0,VALID,25.6431,VALID,161,VALID,0.635547,
2008-03-30, 00:56:04,VALID,1009.11,VALID,0,VALID,91.5243,VALID,0,VALID,25.6431,VALID,145,VALID,0.927344,
2008-03-30, 00:57:04,VALID,1009.13,VALID,0,VALID,91.4328,VALID,0,VALID,25.6841,VALID,171,VALID,0.817578,
2008-03-30, 00:58:04,VALID,1009.13,VALID,0,VALID,90.9981,VALID,0,VALID,25.7036,VALID,164,VALID,1.08047,
2008-03-30, 00:59:04,VALID,1009.16,VALID,0,VALID,91.0744,VALID,0,VALID,25.6821,VALID,147,VALID,0.513281,
2008-03-30, 01:00:04,VALID,1009.13,VALID,0,VALID,91.2193,VALID,0,VALID,25.7036,VALID,155,VALID,0.50625,
2008-03-30, 01:01:04,VALID,1009.14,VALID,0,VALID,91.3718,VALID,0,VALID,25.6821,VALID,168,VALID,0.453516,
2008-03-30, 01:02:04,VALID,1009.12,VALID,0,VALID,91.3718,VALID,0,VALID,25.6821,VALID,157,VALID,0.675391,
2008-03-30, 01:03:04,VALID,1009.12,VALID,0,VALID,91.448,VALID,0,VALID,25.7036,VALID,170,VALID,0.687109,
2008-03-30, 01:04:04,VALID,1009.11,VALID,0,VALID,91.448,VALID,0,VALID,25.6626,VALID,179,VALID,0.492969,
2008-03-30, 01:05:04,VALID,1009.13,VALID,0,VALID,91.6311,VALID,0,VALID,25.6821,VALID,170,VALID,0.708984,
2008-03-30, 01:06:04,VALID,1009.14,VALID,0,VALID,91.7683,VALID,0,VALID,25.6646,VALID,190,VALID,0.851172,
2008-03-30, 01:07:04,VALID,1009.13,VALID,0,VALID,91.7759,VALID,0,VALID,25.6841,VALID,169,VALID,0.683984,
2008-03-30, 01:08:04,VALID,1009.11,VALID,0,VALID,91.6082,VALID,0,VALID,25.6431,VALID,172,VALID,0.346875,
2008-03-30, 01:09:04,VALID,1009.11,VALID,0,VALID,91.4023,VALID,0,VALID,25.6451,VALID,174,VALID,0.749609,
2008-03-30, 01:10:04,VALID,1009.11,VALID,0,VALID,91.0896,VALID,0,VALID,25.6451,VALID,159,VALID,0.584766,
2008-03-30, 01:11:04,VALID,1009.09,VALID,0,VALID,91.2803,VALID,0,VALID,25.6236,VALID,161,VALID,0.673828,
2008-03-30, 01:12:04,VALID,1009.08,VALID,0,VALID,91.5548,VALID,0,VALID,25.6236,VALID,164,VALID,0.540625,
2008-03-30, 01:13:04,VALID,1009.05,VALID,0,VALID,91.2955,VALID,0,VALID,25.6236,VALID,170,VALID,0.871094,
2008-03-30, 01:14:04,VALID,1009.05,VALID,0,VALID,91.4175,VALID,0,VALID,25.6256,VALID,161,VALID,0.719922,
2008-03-30, 01:15:04,VALID,1009.03,VALID,0,VALID,91.3336,VALID,0,VALID,25.6041,VALID,174,VALID,1.0043,
2008-03-30, 01:16:04,VALID,1009.03,VALID,0,VALID,91.2955,VALID,0,VALID,25.6256,VALID,177,VALID,0.477344,
2008-03-30, 01:17:04,VALID,1009.02,VALID,0,VALID,91.4557,VALID,0,VALID,25.6256,VALID,165,VALID,0.3625,
2008-03-30, 01:18:04,VALID,1009.02,VALID,0,VALID,91.1125,VALID,0,VALID,25.6041,VALID,169,VALID,0.571484,
2008-03-30, 01:19:04,VALID,1009.03,VALID,0,VALID,91.2498,VALID,0,VALID,25.6041,VALID,163,VALID,0.420312,
2008-03-30, 01:20:04,VALID,1009.05,VALID,0,VALID,91.1964,VALID,0,VALID,25.6061,VALID,154,VALID,0.375781,
2008-03-30, 01:21:04,VALID,1009.04,VALID,0,VALID,91.4404,VALID,0,VALID,25.6041,VALID,154,VALID,0.304297,
2008-03-30, 01:22:04,VALID,1009.07,VALID,0,VALID,90.8837,VALID,0,VALID,25.5846,VALID,154,VALID,0.784375,
2008-03-30, 01:23:04,VALID,1009.06,VALID,0,VALID,91.1201,VALID,0,VALID,25.5846,VALID,157,VALID,0.834766,
2008-03-30, 01:24:04,VALID,1009.06,VALID,0,VALID,91.2726,VALID,0,VALID,25.6041,VALID,147,VALID,0.593359,
2008-03-30, 01:25:04,VALID,1009.05,VALID,0,VALID,91.2193,VALID,0,VALID,25.5846,VALID,142,VALID,0.791797,
2008-03-30, 01:26:04,VALID,1009.02,VALID,0,VALID,91.265,VALID,0,VALID,25.6041,VALID,142,VALID,0.824219,
2008-03-30, 01:27:04,VALID,1009.02,VALID,0,VALID,91.6921,VALID,0,VALID,25.5846,VALID,128,VALID,0.877734,
2008-03-30, 01:28:04,VALID,1008.98,VALID,0,VALID,91.4938,VALID,0,VALID,25.5846,VALID,131,VALID,1.11953,
2008-03-30, 01:29:04,VALID,1008.98,VALID,0,VALID,91.4785,VALID,0,VALID,25.5846,VALID,138,VALID,0.802344,
2008-03-30, 01:30:04,VALID,1008.97,VALID,0,VALID,91.7531,VALID,0,VALID,25.5651,VALID,148,VALID,0.697656,
2008-03-30, 01:31:04,VALID,1008.96,VALID,0,VALID,91.387,VALID,0,VALID,25.5456,VALID,129,VALID,0.596875,
2008-03-30, 01:32:04,VALID,1008.97,VALID,0,VALID,91.8064,VALID,0,VALID,25.5261,VALID,144,VALID,0.615234,
2008-03-30, 01:33:04,VALID,1008.95,VALID,0,VALID,91.7836,VALID,0,VALID,25.5261,VALID,145,VALID,0.396875,
2008-03-30, 01:34:04,VALID,1008.97,VALID,0,VALID,92.1725,VALID,0,VALID,25.5066,VALID,134,VALID,0.5125,
2008-03-30, 01:35:04,VALID,1008.99,VALID,0,VALID,91.8903,VALID,0,VALID,25.4871,VALID,128,VALID,0.609766,
2008-03-30, 01:36:04,VALID,1009.02,VALID,0,VALID,92.0657,VALID,0,VALID,25.4871,VALID,155,VALID,0.591016,
2008-03-30, 01:37:04,VALID,1009.02,VALID,0,VALID,91.898,VALID,0,VALID,25.4677,VALID,140,VALID,0.549219,
2008-03-30, 01:38:04,VALID,1009.01,VALID,0,VALID,92.2259,VALID,0,VALID,25.4891,VALID,140,VALID,0.451953,
2008-03-30, 01:39:04,VALID,1008.98,VALID,0,VALID,92.0352,VALID,0,VALID,25.4482,VALID,124,VALID,0.619531,
2008-03-30, 01:40:04,VALID,1008.95,VALID,0,VALID,91.8217,VALID,0,VALID,25.4482,VALID,142,VALID,0.448438,
2008-03-30, 01:41:04,VALID,1008.91,VALID,0,VALID,91.6387,VALID,0,VALID,25.4287,VALID,154,VALID,0.430078,
2008-03-30, 01:42:04,VALID,1008.86,VALID,0,VALID,91.4252,VALID,0,VALID,25.4287,VALID,128,VALID,0.446094,
2008-03-30, 01:43:04,VALID,1008.84,VALID,0,VALID,91.4633,VALID,0,VALID,25.4092,VALID,129,VALID,0.0625,
2008-03-30, 01:44:04,VALID,1008.81,VALID,0,VALID,91.5777,VALID,0,VALID,25.4092,VALID,142,VALID,0.367188,
2008-03-30, 01:45:04,VALID,1008.8,VALID,0,VALID,91.3794,VALID,0,VALID,25.3897,VALID,151,VALID,0.269531,
2008-03-30, 01:46:04,VALID,1008.78,VALID,0,VALID,91.2269,VALID,0,VALID,25.3897,VALID,158,VALID,0.472656,
2008-03-30, 01:47:04,VALID,1008.76,VALID,0,VALID,91.3336,VALID,0,VALID,25.3897,VALID,160,VALID,0.166797,
2008-03-30, 01:48:04,VALID,1008.74,VALID,0,VALID,91.6082,VALID,0,VALID,25.3897,VALID,160,VALID,0.0148437,
2008-03-30, 01:49:04,VALID,1008.74,VALID,0,VALID,91.8827,VALID,0,VALID,25.3702,VALID,160,VALID,0.259766,
2008-03-30, 01:50:04,VALID,1008.71,VALID,0,VALID,91.4175,VALID,0,VALID,25.3507,VALID,147,VALID,0.485156,
2008-03-30, 01:51:04,VALID,1008.67,VALID,0,VALID,91.7378,VALID,0,VALID,25.3702,VALID,137,VALID,0.432422,
2008-03-30, 01:52:04,VALID,1008.65,VALID,0,VALID,91.5243,VALID,0,VALID,25.3897,VALID,111,VALID,0.876172,
2008-03-30, 01:53:04,VALID,1008.64,VALID,0,VALID,91.6539,VALID,0,VALID,25.3897,VALID,118,VALID,0.872656,
2008-03-30, 01:54:04,VALID,1008.62,VALID,0,VALID,91.5395,VALID,0,VALID,25.3897,VALID,125,VALID,0.554297,
2008-03-30, 01:55:04,VALID,1008.61,VALID,0,VALID,91.2574,VALID,0,VALID,25.3702,VALID,130,VALID,0.910156,
2008-03-30, 01:56:04,VALID,1008.58,VALID,0,VALID,91.509,VALID,0,VALID,25.4092,VALID,98,VALID,0.708984,
2008-03-30, 01:57:04,VALID,1008.55,VALID,0,VALID,91.1354,VALID,0,VALID,25.4111,VALID,85,VALID,0.817187,
2008-03-30, 01:58:04,VALID,1008.54,VALID,0,VALID,91.2955,VALID,0,VALID,25.4092,VALID,81,VALID,0.908984,
2008-03-30, 01:59:04,VALID,1008.51,VALID,0,VALID,91.57,VALID,0,VALID,25.4287,VALID,49,VALID,0.558594,
2008-03-30, 02:00:04,VALID,1008.53,VALID,0,VALID,91.4633,VALID,0,VALID,25.4092,VALID,56,VALID,0.700391,
2008-03-30, 02:01:04,VALID,1008.54,VALID,0,VALID,91.6311,VALID,0,VALID,25.4111,VALID,47,VALID,0.421875,
2008-03-30, 02:02:04,VALID,1008.53,VALID,0,VALID,91.6768,VALID,0,VALID,25.3507,VALID,46,VALID,0.309375,
2008-03-30, 02:03:04,VALID,1008.55,VALID,0,VALID,91.8141,VALID,0,VALID,25.3702,VALID,70,VALID,0.514453,
2008-03-30, 02:04:04,VALID,1008.57,VALID,0,VALID,91.8293,VALID,0,VALID,25.3312,VALID,72,VALID,0.558984,
2008-03-30, 02:05:05,VALID,1008.56,VALID,0,VALID,91.959,VALID,0,VALID,25.3312,VALID,72,VALID,0.714844,
2008-03-30, 02:06:05,VALID,1008.59,VALID,0,VALID,92.1115,VALID,0,VALID,25.3312,VALID,62,VALID,0.923437,
2008-03-30, 02:07:05,VALID,1008.57,VALID,0,VALID,92.2792,VALID,0,VALID,25.3117,VALID,78,VALID,0.874609,
2008-03-30, 02:08:05,VALID,1008.59,VALID,0,VALID,92.3936,VALID,0,VALID,25.3117,VALID,66,VALID,0.883984,
2008-03-30, 02:09:05,VALID,1008.59,VALID,0,VALID,92.5004,VALID,0,VALID,25.2922,VALID,66,VALID,0.842578,
2008-03-30, 02:10:05,VALID,1008.63,VALID,0,VALID,92.7292,VALID,0,VALID,25.2922,VALID,59,VALID,0.675391,
2008-03-30, 02:11:05,VALID,1008.58,VALID,0,VALID,92.9046,VALID,0,VALID,25.2727,VALID,53,VALID,0.648828,
2008-03-30, 02:12:05,VALID,1008.54,VALID,0,VALID,93.0266,VALID,0,VALID,25.2337,VALID,77,VALID,0.990234,
2008-03-30, 02:13:05,VALID,1008.54,VALID,0,VALID,93.2096,VALID,0,VALID,25.1947,VALID,36,VALID,0.79375,
2008-03-30, 02:14:05,VALID,1008.54,VALID,0,VALID,93.4079,VALID,0,VALID,25.1947,VALID,31,VALID,0.639063,
2008-03-30, 02:15:05,VALID,1008.5,VALID,0,VALID,93.5222,VALID,0,VALID,25.1752,VALID,42,VALID,0.496094,
2008-03-30, 02:16:05,VALID,1008.49,VALID,0,VALID,93.6976,VALID,0,VALID,25.1557,VALID,84,VALID,0.110937,
2008-03-30, 02:17:05,VALID,1008.46,VALID,0,VALID,93.7739,VALID,0,VALID,25.1362,VALID,12,VALID,0.41875,
2008-03-30, 02:18:05,VALID,1008.43,VALID,0,VALID,93.9112,VALID,0,VALID,25.1167,VALID,357,VALID,0.360547,
2008-03-30, 02:19:05,VALID,1008.39,VALID,0,VALID,93.9569,VALID,0,VALID,25.1167,VALID,330,VALID,0.569922,
2008-03-30, 02:20:05,VALID,1008.39,VALID,0,VALID,94.0713,VALID,0,VALID,25.0973,VALID,335,VALID,0.320313,
2008-03-30, 02:21:05,VALID,1008.37,VALID,0,VALID,94.1857,VALID,0,VALID,25.0973,VALID,333,VALID,0.195313,
2008-03-30, 02:22:05,VALID,1008.37,VALID,0,VALID,94.2543,VALID,0,VALID,25.0973,VALID,333,VALID,0.177734,
2008-03-30, 02:23:05,VALID,1008.36,VALID,0,VALID,94.2848,VALID,0,VALID,25.0778,VALID,19,VALID,0.39375,
2008-03-30, 02:24:05,VALID,1008.38,VALID,0,VALID,94.3382,VALID,0,VALID,25.0583,VALID,19,VALID,0.00195313,
2008-03-30, 02:25:05,VALID,1008.35,VALID,0,VALID,94.4145,VALID,0,VALID,25.0388,VALID,33,VALID,0.333203,
2008-03-30, 02:26:05,VALID,1008.39,VALID,0,VALID,94.4373,VALID,0,VALID,25.0388,VALID,41,VALID,0.277734,
2008-03-30, 02:27:05,VALID,1008.37,VALID,0,VALID,94.5212,VALID,0,VALID,25.0388,VALID,80,VALID,0.449609,
2008-03-30, 02:28:05,VALID,1008.38,VALID,0,VALID,94.5975,VALID,0,VALID,25.0388,VALID,80,VALID,0.441016,
2008-03-30, 02:29:05,VALID,1008.43,VALID,0,VALID,94.689,VALID,0,VALID,25.0583,VALID,85,VALID,0.588672,
2008-03-30, 02:30:05,VALID,1008.42,VALID,0,VALID,94.7576,VALID,0,VALID,25.0583,VALID,86,VALID,0.411719,
2008-03-30, 02:31:05,VALID,1008.37,VALID,0,VALID,94.7042,VALID,0,VALID,25.0583,VALID,88,VALID,0.283203,
2008-03-30, 02:32:05,VALID,1008.36,VALID,0,VALID,94.7042,VALID,0,VALID,25.0778,VALID,89,VALID,0.389844,
2008-03-30, 02:33:05,VALID,1008.34,VALID,0,VALID,94.7042,VALID,0.105969,VALID,25.0564,VALID,46,VALID,0.380078,
2008-03-30, 02:34:05,VALID,1008.34,VALID,0,VALID,94.6127,VALID,0,VALID,25.0778,VALID,1,VALID,0.45625,
2008-03-30, 02:35:05,VALID,1008.3,VALID,0,VALID,94.6508,VALID,0,VALID,25.0759,VALID,359,VALID,0.311328,
2008-03-30, 02:36:05,VALID,1008.29,VALID,0,VALID,94.6051,VALID,0,VALID,25.0778,VALID,14,VALID,0.197266,
2008-03-30, 02:37:05,VALID,1008.29,VALID,0,VALID,94.5517,VALID,0,VALID,25.0778,VALID,356,VALID,0.313672,
2008-03-30, 02:38:05,VALID,1008.26,VALID,0,VALID,94.5365,VALID,0.105969,VALID,25.0778,VALID,337,VALID,0.276172,
2008-03-30, 02:39:05,VALID,1008.23,VALID,0,VALID,94.5898,VALID,0,VALID,25.0564,VALID,337,VALID,0.208203,
2008-03-30, 02:40:05,VALID,1008.24,VALID,0,VALID,94.6051,VALID,0,VALID,25.0778,VALID,336,VALID,0.164063,
2008-03-30, 02:41:05,VALID,1008.24,VALID,0,VALID,94.5746,VALID,0,VALID,25.0564,VALID,336,VALID,0.00351562,
2008-03-30, 02:42:05,VALID,1008.21,VALID,0,VALID,94.5517,VALID,0,VALID,25.0778,VALID,337,VALID,0.0105469,
2008-03-30, 02:43:05,VALID,1008.22,VALID,0,VALID,94.5822,VALID,0.105969,VALID,25.0778,VALID,342,VALID,0.227344,
2008-03-30, 02:44:05,VALID,1008.19,VALID,0,VALID,94.5822,VALID,0.105969,VALID,25.0778,VALID,62,VALID,0.593359,
2008-03-30, 02:45:05,VALID,1008.2,VALID,0,VALID,94.6432,VALID,0,VALID,25.0778,VALID,69,VALID,0.706641,
2008-03-30, 02:46:05,VALID,1008.18,VALID,0,VALID,94.628,VALID,0,VALID,25.0583,VALID,76,VALID,0.615625,
2008-03-30, 02:47:05,VALID,1008.16,VALID,0,VALID,94.6737,VALID,0,VALID,25.0583,VALID,74,VALID,0.632813,
2008-03-30, 02:48:05,VALID,1008.14,VALID,0,VALID,94.7195,VALID,0.105969,VALID,25.0778,VALID,74,VALID,0.478516,
2008-03-30, 02:49:05,VALID,1008.14,VALID,0,VALID,94.7119,VALID,0,VALID,25.0778,VALID,74,VALID,0.534375,
2008-03-30, 02:50:05,VALID,1008.11,VALID,0,VALID,94.7119,VALID,0,VALID,25.0583,VALID,76,VALID,0.688672,
2008-03-30, 02:51:05,VALID,1008.12,VALID,0,VALID,94.7347,VALID,0.105969,VALID,25.0583,VALID,79,VALID,0.391016,
2008-03-30, 02:52:05,VALID,1008.13,VALID,0,VALID,94.6966,VALID,0.105969,VALID,25.0564,VALID,79,VALID,0.88125,
2008-03-30, 02:53:05,VALID,1008.14,VALID,0,VALID,94.5975,VALID,0,VALID,25.0564,VALID,78,VALID,0.625781,
2008-03-30, 02:54:05,VALID,1008.11,VALID,0,VALID,94.5822,VALID,0,VALID,25.0973,VALID,95,VALID,0.558203,
2008-03-30, 02:55:05,VALID,1008.13,VALID,0,VALID,94.5288,VALID,0.105969,VALID,25.1167,VALID,79,VALID,0.666016,
2008-03-30, 02:56:05,VALID,1008.13,VALID,0,VALID,94.506,VALID,0,VALID,25.1167,VALID,84,VALID,0.448828,
2008-03-30, 02:57:05,VALID,1008.15,VALID,0,VALID,94.4983,VALID,0,VALID,25.1167,VALID,114,VALID,0.771875,
2008-03-30, 02:58:05,VALID,1008.18,VALID,0,VALID,94.4907,VALID,0,VALID,25.1167,VALID,115,VALID,0.498828,
2008-03-30, 02:59:05,VALID,1008.16,VALID,0,VALID,94.4145,VALID,0,VALID,25.0973,VALID,114,VALID,0.476172,
2008-03-30, 03:00:05,VALID,1008.17,VALID,0,VALID,94.4373,VALID,0.105969,VALID,25.0973,VALID,107,VALID,0.466406,
2008-03-30, 03:01:05,VALID,1008.2,VALID,0,VALID,94.4297,VALID,0,VALID,25.0973,VALID,81,VALID,0.752344,
2008-03-30, 03:02:05,VALID,1008.18,VALID,0,VALID,94.4068,VALID,0,VALID,25.1167,VALID,86,VALID,0.482031,
2008-03-30, 03:03:05,VALID,1008.2,VALID,0,VALID,94.4145,VALID,0,VALID,25.0973,VALID,51,VALID,0.493359,
2008-03-30, 03:04:05,VALID,1008.2,VALID,0,VALID,94.3687,VALID,0,VALID,25.1167,VALID,43,VALID,0.510547,
2008-03-30, 03:05:05,VALID,1008.18,VALID,0,VALID,94.3534,VALID,0.105969,VALID,25.0973,VALID,50,VALID,0.394922,
2008-03-30, 03:06:05,VALID,1008.23,VALID,0,VALID,94.3687,VALID,0.105969,VALID,25.0759,VALID,50,VALID,0.328906,
2008-03-30, 03:07:05,VALID,1008.21,VALID,0,VALID,94.3763,VALID,0.105969,VALID,25.0778,VALID,50,VALID,0.015625,
2008-03-30, 03:08:05,VALID,1008.26,VALID,0,VALID,94.4526,VALID,0,VALID,25.0778,VALID,50,VALID,0.000390625,
2008-03-30, 03:09:05,VALID,1008.3,VALID,0,VALID,94.4831,VALID,0,VALID,25.0583,VALID,85,VALID,0.35625,
2008-03-30, 03:10:05,VALID,1008.31,VALID,0,VALID,94.5212,VALID,0,VALID,25.0583,VALID,134,VALID,0.408594,
2008-03-30, 03:11:05,VALID,1008.32,VALID,0,VALID,94.5441,VALID,0.105969,VALID,25.0583,VALID,194,VALID,0.498047,
2008-03-30, 03:12:05,VALID,1008.32,VALID,0,VALID,94.5822,VALID,0,VALID,25.0388,VALID,194,VALID,0.303906,
2008-03-30, 03:13:05,VALID,1008.3,VALID,0,VALID,94.5288,VALID,0.105969,VALID,25.0369,VALID,192,VALID,0.28125,
2008-03-30, 03:14:05,VALID,1008.28,VALID,0,VALID,94.5136,VALID,0,VALID,25.0174,VALID,192,VALID,0,
2008-03-30, 03:15:05,VALID,1008.25,VALID,0,VALID,94.5136,VALID,0,VALID,25.0388,VALID,152,VALID,0.302734,
2008-03-30, 03:16:05,VALID,1008.26,VALID,0,VALID,94.5441,VALID,0.105969,VALID,25.0193,VALID,135,VALID,0.342187,
2008-03-30, 03:17:05,VALID,1008.26,VALID,0,VALID,94.567,VALID,0,VALID,24.9979,VALID,131,VALID,0.0527344,
2008-03-30, 03:18:05,VALID,1008.28,VALID,0,VALID,94.4983,VALID,0,VALID,25.0388,VALID,11,VALID,0.519141,
2008-03-30, 03:19:05,VALID,1008.26,VALID,0,VALID,94.5517,VALID,0,VALID,24.9784,VALID,5,VALID,0.422266,
2008-03-30, 03:20:05,VALID,1008.29,VALID,0,VALID,94.6508,VALID,0,VALID,24.9998,VALID,5,VALID,0.273438,
2008-03-30, 03:21:05,VALID,1008.23,VALID,0,VALID,94.7119,VALID,0,VALID,24.9608,VALID,5,VALID,0.257813,
2008-03-30, 03:22:05,VALID,1008.25,VALID,0,VALID,94.75,VALID,0.105969,VALID,24.9394,VALID,5,VALID,0.276953,
2008-03-30, 03:23:05,VALID,1008.24,VALID,0,VALID,94.75,VALID,0.105969,VALID,24.9413,VALID,8,VALID,0.408203,
2008-03-30, 03:24:05,VALID,1008.24,VALID,0,VALID,94.7271,VALID,0.105969,VALID,24.9218,VALID,19,VALID,0.438281,
2008-03-30, 03:25:05,VALID,1008.25,VALID,0,VALID,94.7957,VALID,0.105969,VALID,24.9023,VALID,23,VALID,0.450391,
2008-03-30, 03:26:05,VALID,1008.24,VALID,0,VALID,94.8491,VALID,0,VALID,24.8828,VALID,50,VALID,0.396875,
2008-03-30, 03:27:05,VALID,1008.24,VALID,0,VALID,94.9101,VALID,0,VALID,24.8828,VALID,49,VALID,0.378906,
2008-03-30, 03:28:05,VALID,1008.24,VALID,0,VALID,95.0169,VALID,0.105969,VALID,24.8828,VALID,16,VALID,0.334766,
2008-03-30, 03:29:05,VALID,1008.23,VALID,0,VALID,95.0016,VALID,0.105969,VALID,24.842,VALID,16,VALID,0.432031,
2008-03-30, 03:30:05,VALID,1008.21,VALID,0,VALID,95.0245,VALID,0.105969,VALID,24.8633,VALID,12,VALID,0.446484,
2008-03-30, 03:31:05,VALID,1008.21,VALID,0,VALID,95.0169,VALID,0,VALID,24.8438,VALID,12,VALID,0.292969,
2008-03-30, 03:32:05,VALID,1008.2,VALID,0,VALID,95.0855,VALID,0,VALID,24.8438,VALID,13,VALID,0.241797,
2008-03-30, 03:33:05,VALID,1008.2,VALID,0,VALID,95.1084,VALID,0,VALID,24.8244,VALID,10,VALID,0.143359,
2008-03-30, 03:34:05,VALID,1008.16,VALID,0,VALID,95.1236,VALID,0.105969,VALID,24.8049,VALID,10,VALID,0.0992187,
2008-03-30, 03:35:05,VALID,1008.17,VALID,0,VALID,95.0779,VALID,0.105969,VALID,24.8049,VALID,10,VALID,0.305078,
2008-03-30, 03:36:05,VALID,1008.13,VALID,0,VALID,95.0931,VALID,0.105969,VALID,24.7854,VALID,4,VALID,0.380469,
2008-03-30, 03:37:05,VALID,1008.13,VALID,0,VALID,95.0931,VALID,0.105969,VALID,24.7659,VALID,4,VALID,0.26875,
2008-03-30, 03:38:05,VALID,1008.14,VALID,0,VALID,95.1236,VALID,0.105969,VALID,24.7464,VALID,4,VALID,0.203516,
2008-03-30, 03:39:05,VALID,1008.11,VALID,0,VALID,95.1542,VALID,0.105969,VALID,24.7055,VALID,4,VALID,0.374609,
2008-03-30, 03:40:05,VALID,1008.12,VALID,0,VALID,95.1999,VALID,0,VALID,24.7269,VALID,4,VALID,0.113281,
2008-03-30, 03:41:05,VALID,1008.14,VALID,0,VALID,95.2609,VALID,0,VALID,24.7074,VALID,4,VALID,0.160938,
2008-03-30, 03:42:05,VALID,1008.14,VALID,0,VALID,95.3143,VALID,0,VALID,24.6879,VALID,4,VALID,0.0105469,
2008-03-30, 03:43:05,VALID,1008.15,VALID,0,VALID,95.36,VALID,0,VALID,24.6879,VALID,4,VALID,0,